www.pogodaiklimat.ru

Погода и климат >> Архив погоды >> Россия >> Приморский край >> Владивосток


АРХИВ ПОГОДЫ в Владивостоке

Время (UTC), дата Ветер
(напр.,м/с)
 
Видим.   Явления Облачность Т
(С)
Тd
(С)
f
(%)
Тe
(С)
Тes
(С)
Комфортность P
(гПа)
Po
(гПа)
Тmin
(С)
Tmax
(С)
R
(мм)
S
(см)
00 14.02 СЗ 6
{12}
20 км 3/0
[Ac lent]
-7.1 -13.8 59 -15 -14 по сезону 1030.7 1006.1
03 14.02 СЗ 7-12
{14}
20 км ясно -3.9 -12.7 50 -11 -9 по сезону 1029.9 1005.6
06 14.02 СЗ 7-11
{14}
20 км ясно -1.8 -12.3 45 -9 -8 по сезону 1028.1 1004.0
09 14.02 С 5
{12}
20 км ясно -2.4 -13.1 44 -8 -8 по сезону 1028.1 1004.0 -1.5
12 14.02 СЗ 4
{11}
20 км ясно -3.6 -12.6 50 -9 -9 по сезону 1028.8 1004.6
15 14.02 СЗ 3 20 км ясно -5.0 -13.0 53 -10 -10 по сезону 1028.8 1004.4
18 14.02 СЗ 3 20 км ясно -5.3 -13.5 52 -10 -10 тепло 1027.4 1003.2
21 14.02 штиль 0 20 км ясно -5.5 -13.4 54 -6 -6 тепло 1026.9 1002.6 -5.7 1
00 15.02 ЮВ 1 10 км 5/4 600 м
[Sc Ci fib]
-4.6 -11.3 59 -6 -5 тепло 1026.1 1001.8 -6.5
03 15.02 ЮВ 5 20 км 8/6 600 м
[Sc Ci fib]
-2.0 -11.4 49 -8 -6 тепло 1023.9 999.9
06 15.02 ЮВ 7 20 км 8/8 600 м
[Sc]
-2.1 -7.5 66 -9 -9 по сезону 1020.8 997.0
09 15.02 ЮВ 7 20 км 8/8
[Sc]
-2.3 -5.8 77 -10 -10 по сезону 1020.4 996.5 -0.7
12 15.02 20 км н/о -2.2 -3.9 88 -9 -9 по сезону 1019.0 995.1
15 15.02 ЮВ 8-10
{10}
20 км 10/10 600 м
[Sc]
-1.6 -2.8 92 -10 -10 по сезону 1017.0 993.3
18 15.02 ЮВ 8-11
{12}
20 км 10/10 600 м
[Sc]
-1.3 -2.1 94 -9 -9 тепло 1013.0 989.4
21 15.02 ЮВ 11-14
{14}
20 км 10/10 600 м
[Sc]
-0.4 -1.6 92 -9 -9 тепло 1010.9 987.4 -2.4 1
00 16.02 ЮВ 10-12
{14}
4000 м дымка 10/10 300 м
[St]
+0.4 -0.7 92 -8 -8 тепло 1010.3 986.9
03 16.02 Ю 5
{12}
4000 м дымка 10/0
[As op Cs]
+4.5 -1.9 63 0 +2 тепло 1008.9 985.8
06 16.02 Ю 6
{11}
4000 м дымка 6/0
[Cs]
+6.2 -2.8 52 +2 +3 тепло 1007.4 984.5
09 16.02 З 6
{12}
20 км 10/0
[As trans]
+5.8 -6.0 42 +2 +2 тепло 1008.8 985.8 +6.9
12 16.02 СЗ 11-17
{18}
20 км 8/0
[Cs]
+1.3 -12.1 36 -6 -6 тепло 1011.4 988.0
15 16.02 СЗ 9-14
{17}
20 км 10/0
[Cs]
-2.7 -12.2 48 -11 -11 по сезону 1014.2 990.4
18 16.02 СЗ 6
{17}
20 км 6/0
[Cs]
-4.8 -14.1 48 -12 -12 по сезону 1014.3 990.4
21 16.02 СЗ 5
{10}
20 км ясно -5.7 -13.7 53 -12 -12 по сезону 1014.1 990.0 -5.8 1
00 17.02 СЗ 6 50 км 3/3 600 м
[Sc]
-5.7 -13.1 56 -13 -12 по сезону 1015.0 991.0 -6.1
03 17.02 З 9-15
{18}
50 км 6/6 600 м
[Sc]
-4.8 -17.6 36 -13 -13 по сезону 1014.4 990.4
06 17.02 СЗ 12-17
{19}
50 км 6/6 600 м
[Sc]
-7.0 -19.3 37 -17 -17 прохладно 1015.1 990.9
09 17.02 СЗ 12-20
{20}
50 км 8/8 300 м
[Sc]
-8.7 -19.9 40 -20 -20 холодно 1018.4 994.0 -4.8
12 17.02 СЗ 10-14
{22}
50 км 8/0
[As trans]
-10.6 -24.2 32 -21 -21 холодно 1021.8 997.1
15 17.02 З 8-10
{15}
50 км ясно -11.2 -22.2 40 -21 -21 прохладно 1022.6 997.9
18 17.02 З 4
{11}
50 км ясно -11.4 -22.3 40 -18 -18 по сезону 1022.4 997.6
21 17.02 СЗ 4 50 км ясно -12.6 -21.2 49 -20 -20 по сезону 1021.9 997.0 -12.6 1
00 18.02 СЗ 6 50 км ясно -13.2 -20.3 55 -22 -21 прохладно 1022.5 997.6 -13.8
03 18.02 СЗ 5
{11}
50 км 3/3 600 м
[Cu hum]
-10.3 -22.0 38 -18 -15 прохладно 1020.7 996.1
06 18.02 СЗ 8-13
{13}
50 км ясно -8.0 -23.1 29 -17 -16 прохладно 1017.8 993.5
09 18.02 СЗ 7-11
{13}
50 км ясно -8.3 -22.4 31 -17 -17 прохладно 1019.4 995.0 -7.6
12 18.02 СЗ 7-11
{11}
50 км ясно -9.7 -23.4 32 -18 -18 прохладно 1021.2 996.6
15 18.02 СЗ 7-11
{13}
50 км ясно -11.6 -22.6 40 -21 -21 холодно 1021.2 996.4
18 18.02 СЗ 5
{12}
50 км ясно -13.9 -20.3 58 -22 -22 холодно 1022.1 997.1
21 18.02 СЗ 5 50 км ясно -14.5 -25.1 40 -23 -23 холодно 1020.9 995.9 -14.5 1
00 19.02 СЗ 3 20 км 10/0
[As trans]
-14.3 -22.5 50 -21 -20 прохладно 1021.3 996.2 -14.6
03 19.02 СЗ 3 20 км 10/0
[As trans]
-11.9 -22.8 40 -18 -15 прохладно 1018.6 993.9
06 19.02 Ю 1 20 км 10/0
[As trans]
-9.6 -19.5 44 -12 -10 по сезону 1014.8 990.4
09 19.02 ЮВ 2 4000 м слабый снег 10/0
[As trans]
-10.4 -17.9 54 -15 -15 по сезону 1012.6 988.0 -8.8 0.0
12 19.02 С 1 4000 м снег 10/0
[As trans]
-10.1 -11.3 91 -12 -12 по сезону 1009.9 985.6
15 19.02 СЗ 7 4000 м слабый снег 10/0
[As trans]
-11.0 -12.1 92 -20 -20 прохладно 1007.9 983.6
18 19.02 СЗ 11-15
{16}
4000 м слабый снег 10/0
[As trans]
-12.5 -14.0 89 -24 -24 холодно 1008.0 983.4
21 19.02 СЗ 13-23
{23}
2000 м снег {метель} ?/? -13.7 -15.3 88 -27 -27 очень
холодно
1008.0 983.4 -13.7 36
00 20.02 СЗ 15-24
{24}
2000 м снег {метель} ?/? -14.1 -16.1 85 -28 -28 очень
холодно
1010.6 985.8 -14.1
03 20.02 СЗ 15-22
{25}
20 км позёмок {снег, метель} 10/0
[As trans]
-12.0 -17.4 64 -25 -25 очень
холодно
1011.5 986.9
06 20.02 СЗ 13-21
{25}
20 км позёмок {снег, метель} 8/0
[As trans]
-9.5 -18.6 47 -21 -21 очень
холодно
1012.9 988.6
09 20.02 СЗ 9-14
{23}
20 км позёмок {метель} 8/8 600 м
[Sc]
-10.3 -18.8 50 -20 -20 холодно 1017.2 992.7 -9.3 1
12 20.02 СЗ 7-10
{18}
20 км {метель} 6/6 600 м
[Sc]
-11.3 -19.8 49 -21 -21 холодно 1021.0 996.2
15 20.02 СЗ 10-15
{17}
20 км 3/0
[Ac lent]
-11.2 -22.6 38 -22 -22 холодно 1023.4 998.6
18 20.02 СЗ 8-13
{15}
20 км ясно -11.9 -23.3 38 -22 -22 холодно 1025.4 1000.5
21 20.02 СЗ 9-12
{17}
20 км ясно -12.2 -21.7 45 -23 -23 холодно 1027.2 1002.3 -12.2 4

 

Местоположение метеостанции Владивосток (Приморский край, Россия): широта 43.12 долгота 131.90 высота над уровнем моря 188 м.

В архиве по умолчанию представлена погода в Владивостоке за последнюю неделю. Архивные данные за месяц целиком и за предыдущие месяцы, начиная с января 2011 года, Вы можете получить, выбрав интересующий диапазон дат из раскрывающегося списка и нажав кнопку "Ввод!".

Внимание! Время в таблицах - всемирное. Для получения местного времени необходимо прибавить поправку, которая в Владивостоке равна 10 ч.

Смотрите также архив погоды в соседних городах и на ближайших метеорологических станциях:

Погода в Барабаше (Приморский край, Россия) (42 км)
Погода в Находке (Приморский край, Россия) (81 км)
Погода в Гамове (Приморский край, Россия) (84 км)
Погода в Тимирязевском (Приморский край, Россия) (85 км)
Погода в Партизанске (Приморский край, Россия) (89 км)
Погода в Посьете (Приморский край, Россия) (104 км)
Погода в Полтавке (Приморский край, Россия) (112 км)
Погода в Анучино (Приморский край, Россия) (130 км)
Погода в Хороль (Приморский край, Россия) (146 км)
Погода в Пограничном (Приморский край, Россия) (150 км)

Пояснения к столбцам:

Ветер - указаны скорость ветра в м/с - средняя за 10 мин, порывы в срок и между сроками (в фигурных скобках) и направление, откуда дует ветер: С - северный, СВ - северо-восточный, В - восточный, ЮВ - юго-восточный, Ю - южный, ЮЗ - юго-западный, З - западный, СЗ - северо-западный.
Видимость - горизонтальная дальность видимости в метрах или километрах. При видимости от 1 до 10 км при отсутствии осадков обычно наблюдается дымка, при ухудшении видимости до 1 км и менее - туман. В сухую погоду видимость может ухудшаться дымом, пылью или мглою.
Явления - указаны атмосферные явления, наблюдавшиеся в срок или в последний час перед сроком; фигурными скобками обозначены явления, наблюдавшиеся между сроками (за 1-3 часа до срока); квадратными скобками обозначены град или гололедные отложения с указанием их диаметра в мм.
Облачность - указаны через наклонную черту общая и нижняя облачность в баллах и высота нижней границы облаков в метрах; квадратными скобками обозначены формы облаков: Ci - перистые, Cs - перисто-слоистые, Cc - перисто-кучевые, Ac - высококучевые, As - высокослоистые, Sc - слоисто-кучевые, Ns - слоисто-дождевые, Cu - кучевые, Cb - кучево-дождевые. Подробнее классификацию облаков см. в Атласе облаков (PDF).
T - Температура воздуха - температура, измеренная на высоте 2 м над землей.
Td - Температура точки росы - температура, при понижении до которой содержащийся в воздухе водяной пар достигнет насыщения.
f - Относительная влажность воздуха - влажноcть воздуха, измеренная на высоте 2 м над землей.
Te - Эффективная температура - температура, которую ощущает одетый по сезону человек в тени. Характеристика душности погоды. При расчете учитывается влияние влажности воздуха и скорости ветра на теплоощущения человека.
Tes - Эффективная температура на солнце - температура, которую ощущает человек, с поправкой на солнечный нагрев. Характеристика знойности погоды. Зависит от высоты солнца над горизонтом, облачности и скорости ветра. Ночью, в пасмурную погоду, а также при ветре 12 м/с и более поправка равна нулю.
P - Атмосферное давление - приведенное к уровню моря атмосферное давление.
Po - Атмосферное давление - измеренное на уровне метеостанции атмосферное давление.
Tmin - Минимальная температура - минимум температуры воздуха на высоте 2 м над землей.
Tmax - Максимальная температура - максимум температуры воздуха на высоте 2 м над землей.
R - Количество осадков - Количество выпавших осадков, мм. При наведении курсора мыши на число - период времени, за который выпало указанное количество осадков.
S - Снежный покров - Высота снежного покрова, см. При наведении курсора мыши на число - состояние снежного покрова и степень покрытия местности в баллах.